Home > Weather > Cayenne > Past weeks

Flag for French Guiana Weather for the Past 2 Weeks in Cayenne, French Guiana

Now
75 °F

Mild.


Feels Like: 73 °F
Forecast: 76 / 84 °F
Wind: No wind

Location: Cayenne / Rochambeau

Current Time: May 3, 2016 at 4:20:57 AM

Latest Report: May 3, 2016 at 3:30 AM


Visibility: N/A

Pressure: 29.89 "Hg

Humidity: 100%

Dew Point: 75 °F

Location of CayenneLocation

Historic Weather in Cayenne — Graph

°F

Cayenne Temperature Yesterday

Maximum temperature yesterday: 90 °F (at 1:00 PM)
Minimum temperature yesterday: 75 °F (at 2:00 AM)
Average temperature yesterday: 81 °F

High & Low Weather Summary for the Past Weeks

 TemperatureHumidityPressure
High90 °F (Apr 18, 12:30 PM)100% (Apr 18, 6:30 AM)29.95 "Hg (Apr 18, 6:30 AM)
Low75 °F (Apr 20, 8:00 PM)59% (May 2, 3:00 PM)29.74 "Hg (Apr 25, 4:00 PM)
Average80 °F89%29.85 "Hg
* Reported Apr 18 3:30 AM — May 3 3:00 AM, Cayenne, Weather by CustomWeather, © 2016

Note: Actual official high and low records may vary slightly from our data, if they occured in-between our weather recording intervals... More about our weather records

Advertising

Cayenne Weather History for the Previous 24 Hours

Scroll right to see more
 ConditionsComfort  
Time TempWeatherWind HumidityBarometerVisibility
3:00 AM
Tue, May 3
77 °FPassing clouds.No wind94%29.89 "HgN/A
2:30 AM77 °FClear.No wind94%29.92 "Hg10 mi
2:00 AM75 °FClear.1 mph100%29.92 "Hg10 mi
1:30 AM77 °FPassing clouds.No wind94%29.92 "HgN/A
1:00 AM77 °FPassing clouds.No wind100%29.92 "HgN/A
12:30 AM77 °FPassing clouds.2 mph94%29.95 "HgN/A
12:00 AM77 °FPassing clouds.2 mph100%29.95 "HgN/A
11:30 PM
Mon, May 2
77 °FPassing clouds.1 mph100%29.95 "HgN/A
11:00 PM77 °FPartly cloudy.No wind100%29.95 "HgN/A
10:00 PM77 °FPassing clouds.2 mph100%29.92 "HgN/A
9:30 PM77 °FClear.No wind94%29.92 "Hg10 mi
9:00 PM79 °FClear.No wind94%29.92 "Hg10 mi
8:30 PM79 °FPassing clouds.No wind94%29.92 "HgN/A
8:00 PM81 °FClear.3 mph89%29.89 "Hg10 mi
7:30 PM82 °FPassing clouds.2 mph84%29.89 "HgN/A
7:00 PM82 °FPassing clouds.6 mph84%29.86 "HgN/A
6:00 PM86 °FPartly sunny.9 mph70%29.86 "HgN/A
5:30 PM86 °FPartly sunny.10 mph70%29.86 "HgN/A
5:00 PM88 °FPartly sunny.10 mph66%29.83 "HgN/A
4:30 PM88 °FPassing clouds.13 mph66%29.83 "HgN/A
4:00 PM88 °FPassing clouds.13 mph66%29.83 "HgN/A
3:30 PM88 °FSunny.13 mph66%29.83 "Hg10 mi
3:00 PM90 °FPassing clouds.12 mph59%29.83 "HgN/A
2:30 PM88 °FPassing clouds.15 mph66%29.86 "HgN/A
2:00 PM90 °FPassing clouds.14 mph63%29.86 "HgN/A
1:30 PM90 °FPassing clouds.15 mph71%29.89 "HgN/A
1:00 PM90 °FPassing clouds.13 mph67%29.89 "HgN/A
12:30 PM88 °FSunny.14 mph66%29.92 "Hg10 mi
12:00 PM88 °FPassing clouds.14 mph70%29.92 "HgN/A
11:30 AM88 °FPassing clouds.13 mph70%29.92 "HgN/A
11:00 AM88 °FScattered clouds.12 mph70%29.92 "HgN/A
10:30 AM86 °FBroken clouds.3 mph79%29.92 "HgN/A
10:00 AM82 °FPartly sunny.5 mph89%29.92 "HgN/A
9:30 AM82 °FPartly sunny.3 mph89%29.92 "HgN/A
9:00 AM81 °FPartly sunny.1 mph89%29.92 "HgN/A
8:30 AM79 °FLight rain. Mostly cloudy.No wind94%29.92 "HgN/A
8:00 AM77 °FLight rain. Fog.3 mph100%29.92 "Hg3 mi
7:30 AM77 °FRain. Broken clouds.3 mph94%29.89 "Hg6 mi
7:00 AM77 °FLight rain. Broken clouds.2 mph94%29.89 "HgN/A
6:30 AM77 °FLight rain. Partly sunny.3 mph94%29.89 "HgN/A
6:00 AM75 °FLight rain. Passing clouds.5 mph100%29.89 "Hg4 mi
5:30 AM75 °FPartly cloudy.2 mph100%29.86 "HgN/A
5:00 AM75 °FMild.No wind100%29.86 "HgN/A
4:30 AM75 °FMild.3 mph100%29.86 "HgN/A
4:00 AM75 °FPassing clouds.1 mph100%29.86 "HgN/A
Weather by CustomWeather, © 2016

See weather overviewHow to use our weather pages